[[{"header":{"parameterUnit":"m.s-1","parameterCategory":1,"la1":30.2991,"la2":30.254,"lo1":-89.0895,"lo2":-89.0444,"dy":0.0017,"dx":0.0017,"nx":28,"ny":28,"refTime":"2026-01-07T09:00:00:Z","depth":0,"parameterNumber":2,"parameterNumberName":"U-component_of_WINDS"},"data":[0,0,0,0,0,0,0,0,0,0,0,0,0,0,0,0,0,0,0,0,0,0,0,0,0,0,0,0,0,0,0,0,0,0,0,0,0,0,0,0,0,0,0,0,0,0,0,0,0,0,0,0,0,0,0,0,0,0,1.6346,1.6347,0,1.6478,1.6479,1.6481,1.6466,1.6464,1.6462,1.646,1.6603,1.6608,1.6614,0,0,0,0,0,0,0,0,0,0,0,0,0,1.6089,1.6094,1.6345,1.6347,1.6349,1.6477,1.6479,1.6481,1.6467,1.6464,1.6461,1.6459,1.6601,1.6608,1.6615,0,0,0,0,0,0,0,0,0,0,0,0,0,1.6209,1.6095,1.6345,1.6357,1.6359,1.6477,1.6479,1.6482,1.6467,1.6464,1.6461,1.6458,1.6599,1.6607,1.6616,1.6733,0,0,1.6642,1.6646,0,0,0,0,0,0,0,0,1.6202,1.6218,1.6353,1.6356,1.6359,1.6452,1.6441,1.6566,1.6468,1.6426,1.646,1.6456,1.6556,1.6568,1.66,1.674,1.6746,1.6643,1.6648,1.6652,1.6654,0,0,0,0,0,0,0,1.6194,1.6212,1.6398,1.6355,1.6359,1.6358,1.6372,1.6465,1.6508,1.643,1.6429,1.6444,1.6557,1.6591,1.6603,1.6748,1.6643,1.665,1.6656,1.6659,1.6993,1.6996,0,0,0,0,0,0,1.6181,1.6206,1.6394,1.6402,1.6271,1.6365,1.638,1.6426,1.6506,1.6516,1.6447,1.6443,1.6578,1.6593,1.6608,1.6752,1.6652,1.666,1.6665,1.6989,1.6994,1.6998,0,0,0,0,0,0,1.6176,1.6198,1.6388,1.6304,1.6328,1.6373,1.6424,1.643,1.6464,1.6519,1.6528,1.6474,1.6576,1.6596,1.6702,1.6756,1.6664,1.6672,1.6985,1.6991,1.6996,1.7039,0,0,0,0,0,0,1.6169,1.6196,1.6239,1.6305,1.6332,1.6478,1.6427,1.6435,1.6478,1.6475,1.6547,1.6556,1.6575,1.6689,1.671,1.6767,1.6679,1.698,1.6987,1.6994,1.7033,1.7045,1.7056,0,0,0,0,0,1.6159,1.6247,1.6241,1.6264,1.6386,1.6481,1.6497,1.6515,1.6483,1.6528,1.6563,1.6554,1.6747,1.67,1.6724,1.6784,1.6977,1.6985,1.6993,1.7028,1.7043,1.7055,0,0,0,0,0,0,1.6189,1.6256,1.625,1.6361,1.6415,1.6478,1.6535,1.653,1.6596,1.659,1.6613,1.6629,1.6737,1.6771,1.6717,1.6902,1.6858,1.6871,1.6876,1.689,1.6902,1.6891,1.6686,0,0,0,0,0,1.6208,1.6277,1.6332,1.6425,1.6452,1.6489,1.6531,1.654,1.6598,1.6621,1.6665,1.6724,1.6798,1.6846,1.6917,1.7038,1.7055,1.7091,1.7102,1.7111,1.7123,1.7191,1.7209,1.7025,1.7025,1.7024,0,0,1.6249,1.6294,1.6336,1.6433,1.6475,1.6548,1.6508,1.6587,1.6642,1.6634,1.6736,1.6771,1.6838,1.6952,1.7005,1.6984,1.7178,1.7122,1.7129,1.7136,1.7202,1.7219,1.7234,1.703,1.7029,1.7028,0,0,1.6361,1.6401,1.6483,1.6527,1.6591,1.6616,1.6635,1.67,1.6721,1.6824,1.682,1.6887,1.7014,1.7062,1.7104,1.7236,1.723,1.7259,1.7319,1.7385,1.7399,1.7412,1.7461,1.7478,1.727,1.727,1.727,0,1.6404,1.6511,1.6527,1.6606,1.665,1.6644,1.6729,1.6771,1.6857,1.6889,1.6864,1.7023,1.7068,1.7194,1.7227,1.726,1.7285,1.725,1.7395,1.7409,1.7421,1.7468,1.7486,1.7273,1.7273,1.7272,1.7272,0,1.6562,1.6637,1.6696,1.6776,1.6827,1.6909,1.6939,1.6989,1.6995,1.7023,1.7129,1.7182,1.7265,1.7296,1.7303,1.7424,1.7409,1.739,1.7346,1.7441,1.7486,1.7503,1.7277,1.7276,1.7275,1.7275,0,0,1.6695,1.6783,1.6805,1.6842,1.6914,1.6974,1.7057,1.7135,1.7178,1.7239,1.731,1.7418,1.7401,1.7448,1.7461,1.7519,1.7622,1.7493,1.7495,1.7516,1.7761,1.7775,1.7795,1.7619,1.7622,1.7625,1.7756,0,1.6814,1.6957,1.6975,1.7104,1.7175,1.7172,1.7245,1.7298,1.7327,1.7393,1.7426,1.7503,1.7473,1.7502,1.7559,1.7597,1.7672,1.7588,1.7688,1.7692,1.7671,1.7818,1.7833,1.7953,1.7773,1.7776,1.7778,0,1.6971,1.7034,1.7169,1.7233,1.7263,1.7328,1.7402,1.7465,1.7527,1.7544,1.7597,1.7603,1.7692,1.7645,1.7769,1.7712,1.7754,1.778,1.7785,1.7795,1.774,1.7833,1.7992,1.801,1.7805,1.7803,1.7801,0,1.7056,1.7174,1.7271,1.7303,1.7379,1.7425,1.7459,1.7518,1.7565,1.7631,1.7662,1.7739,1.7781,1.7842,1.7869,1.7832,1.7993,1.7947,1.8012,1.8011,1.8046,1.8043,1.8215,1.8073,1.8072,1.8072,1.8072,0,1.7187,1.727,1.7309,1.7369,1.7463,1.7484,1.7578,1.7611,1.7664,1.7732,1.7735,1.78,1.7832,1.7903,1.7926,1.8026,1.8046,1.8064,1.8069,1.8064,1.8061,1.8092,1.8084,1.8077,1.8076,1.8075,1.8074,0,1.7296,1.7326,1.7431,1.7495,1.7513,1.758,1.7636,1.7695,1.7723,1.781,1.7832,1.7878,1.7961,1.7994,1.8097,1.8112,1.8229,1.8227,1.8207,1.8208,1.8271,1.8265,1.8468,1.8497,1.8336,1.8337,1.8338,0,1.7378,1.7441,1.7512,1.7556,1.7592,1.7664,1.7711,1.7736,1.7786,1.7862,1.7913,1.7996,1.8063,1.8197,1.8241,1.832,1.8321,1.8387,1.8333,1.8326,1.8323,1.8319,1.8326,1.8397,1.8398,1.84,1.8401,0,1.752,1.7531,1.7598,1.7671,1.7727,1.7786,1.7844,1.7881,1.7915,1.7971,1.8055,1.8107,1.8211,1.8294,1.8376,1.8415,1.8415,1.8417,1.8437,1.8432,1.8418,1.8427,1.8234,1.8413,1.8411,1.8411,1.841,1.8409,1.7618,1.7675,1.7734,1.7809,1.7854,1.7909,1.7968,1.8003,1.8073,1.8158,1.8169,1.826,1.8323,1.8433,1.8475,1.8548,1.8532,1.8559,1.8567,1.8573,1.8578,1.8406,1.8564,1.8563,1.8563,1.8563,1.8563,0,1.7761,1.7798,1.7867,1.7947,1.8007,1.7999,1.8063,1.8115,1.8193,1.8251,1.8317,1.8415,1.8496,1.8547,1.8629,1.8678,1.8681,1.8699,1.8696,1.8705,1.8587,1.8563,1.8696,1.8696,1.8696,1.8696,1.8696,1.8696,1.7842,1.7938,1.7957,1.8078,1.8116,1.8202,1.824,1.8291,1.8338,1.8446,1.8512,1.8544,1.8601,1.8687,1.8762,1.8776,1.8806,1.8826,1.8839,1.8727,1.8714,1.87,1.8677,1.8833,1.8833,1.8951,1.8952,1.8952]},{"header":{"parameterUnit":"m.s-1","parameterCategory":1,"la1":30.2991,"la2":30.254,"lo1":-89.0895,"lo2":-89.0444,"dy":0.0017,"dx":0.0017,"nx":28,"ny":28,"refTime":"2026-01-07T09:00:00:Z","depth":0,"parameterNumber":3,"parameterNumberName":"V-component_of_WINDS"},"data":[0,0,0,0,0,0,0,0,0,0,0,0,0,0,0,0,0,0,0,0,0,0,0,0,0,0,0,0,0,0,0,0,0,0,0,0,0,0,0,0,0,0,0,0,0,0,0,0,0,0,0,0,0,0,0,0,0,0,1.7784,1.7784,0,1.779,1.779,1.779,1.7754,1.7753,1.7752,1.7751,1.7757,1.7758,1.776,0,0,0,0,0,0,0,0,0,0,0,0,0,1.7743,1.7744,1.7784,1.7784,1.7784,1.779,1.779,1.779,1.7755,1.7753,1.7752,1.7751,1.7757,1.7758,1.776,0,0,0,0,0,0,0,0,0,0,0,0,0,1.7756,1.7745,1.7784,1.7767,1.7766,1.779,1.779,1.779,1.7755,1.7753,1.7752,1.775,1.7757,1.7758,1.776,1.78,0,0,1.7765,1.7766,0,0,0,0,0,0,0,0,1.7756,1.7758,1.777,1.7769,1.7767,1.777,1.7777,1.7793,1.7755,1.7759,1.7751,1.775,1.7763,1.7764,1.7768,1.78,1.7801,1.7765,1.7766,1.7767,1.7767,0,0,0,0,0,0,0,1.7755,1.7757,1.7786,1.777,1.7768,1.776,1.776,1.778,1.7769,1.7759,1.7756,1.7757,1.7762,1.7767,1.7768,1.7801,1.7765,1.7766,1.7767,1.7768,1.7865,1.7867,0,0,0,0,0,0,1.7756,1.7757,1.7786,1.7787,1.7758,1.7762,1.7762,1.777,1.7769,1.7767,1.7758,1.7755,1.7765,1.7766,1.7768,1.7815,1.7767,1.7768,1.7769,1.7864,1.7866,1.7868,0,0,0,0,0,0,1.7755,1.7759,1.7786,1.7771,1.7774,1.7764,1.7774,1.7771,1.7776,1.7769,1.7767,1.7766,1.7763,1.7766,1.7792,1.7814,1.7769,1.777,1.7862,1.7864,1.7867,1.7909,0,0,0,0,0,0,1.7754,1.7759,1.7774,1.7772,1.7775,1.781,1.7775,1.7773,1.7779,1.7775,1.7775,1.7773,1.7762,1.779,1.7794,1.7816,1.7772,1.786,1.7863,1.7866,1.7905,1.7912,1.7918,0,0,0,0,0,1.7753,1.7786,1.7775,1.7779,1.7794,1.7812,1.7813,1.78,1.7781,1.7796,1.7791,1.7773,1.7811,1.7793,1.7797,1.782,1.7859,1.7862,1.7866,1.7902,1.7911,1.7918,0,0,0,0,0,0,1.7792,1.7785,1.7773,1.7807,1.781,1.7806,1.7824,1.7809,1.7818,1.7814,1.7798,1.7798,1.7827,1.7826,1.7806,1.7858,1.7832,1.7836,1.7858,1.7866,1.7872,1.7872,1.7773,0,0,0,0,0,1.7804,1.7819,1.7813,1.7843,1.7845,1.7835,1.7842,1.7831,1.7834,1.7835,1.7832,1.7836,1.7848,1.7857,1.7868,1.7905,1.7904,1.7922,1.7929,1.7934,1.7938,1.7957,1.7965,1.7879,1.7879,1.7879,0,0,1.783,1.7828,1.7839,1.7851,1.7852,1.7868,1.7836,1.7854,1.7866,1.7838,1.7863,1.7861,1.7863,1.7895,1.7909,1.7895,1.7962,1.7939,1.7943,1.7944,1.7962,1.797,1.7977,1.7882,1.7881,1.7881,0,0,1.7885,1.7886,1.791,1.7912,1.7914,1.7907,1.7913,1.7911,1.7908,1.7933,1.7912,1.7926,1.7948,1.795,1.7955,1.801,1.7994,1.8015,1.8048,1.8067,1.8073,1.8079,1.8099,1.8106,1.8019,1.8019,1.8019,0,1.7917,1.794,1.7925,1.7944,1.795,1.7925,1.795,1.7953,1.7959,1.7963,1.7948,1.7974,1.7975,1.8006,1.802,1.8024,1.803,1.8015,1.8074,1.8079,1.8085,1.8103,1.811,1.8021,1.8021,1.8021,1.8021,0,1.7979,1.7995,1.8015,1.8021,1.8029,1.8051,1.8039,1.8049,1.8037,1.8031,1.8056,1.8056,1.8066,1.8073,1.8062,1.8103,1.8094,1.8077,1.8049,1.8096,1.8112,1.8119,1.8025,1.8024,1.8023,1.8023,0,0,1.8059,1.8056,1.8063,1.8065,1.8066,1.8078,1.8099,1.8109,1.8117,1.8122,1.8139,1.8158,1.8142,1.8147,1.8136,1.8152,1.8196,1.8133,1.8132,1.8144,1.824,1.8253,1.8262,1.8185,1.8186,1.8187,1.824,0,1.8112,1.8148,1.8134,1.8171,1.8185,1.8162,1.818,1.8182,1.8177,1.8189,1.8183,1.8197,1.8175,1.8177,1.8192,1.8187,1.8215,1.8183,1.82,1.8201,1.82,1.8271,1.8284,1.8334,1.8246,1.8248,1.8248,0,1.818,1.8187,1.8224,1.8222,1.8227,1.8244,1.8252,1.8263,1.8265,1.826,1.8266,1.8251,1.8271,1.8244,1.8271,1.825,1.8257,1.8255,1.8257,1.8258,1.8227,1.8273,1.835,1.8357,1.8259,1.8258,1.8257,0,1.8234,1.8253,1.8278,1.828,1.8278,1.829,1.829,1.829,1.8297,1.8303,1.8308,1.8317,1.8322,1.8329,1.8318,1.8299,1.8347,1.8319,1.8343,1.8343,1.8354,1.8353,1.8432,1.8359,1.8358,1.8358,1.8358,0,1.8295,1.8319,1.8302,1.8317,1.8343,1.8327,1.8353,1.835,1.8351,1.8365,1.8346,1.8359,1.8343,1.8355,1.8346,1.837,1.8373,1.8369,1.8367,1.8371,1.8371,1.8375,1.8371,1.836,1.836,1.8359,1.8359,0,1.836,1.8349,1.8375,1.837,1.837,1.8389,1.8385,1.8399,1.8392,1.8411,1.8414,1.8404,1.8417,1.8406,1.842,1.8413,1.8445,1.8437,1.8444,1.8442,1.8467,1.8465,1.8551,1.8561,1.8481,1.8482,1.8482,0,1.8399,1.8417,1.8414,1.8422,1.8423,1.8436,1.8442,1.8428,1.8435,1.8438,1.8452,1.8464,1.8472,1.8494,1.8488,1.8498,1.849,1.852,1.8492,1.8495,1.849,1.8489,1.8491,1.8526,1.8526,1.8527,1.8528,0,1.847,1.8464,1.8474,1.8482,1.8491,1.8496,1.8501,1.8508,1.8493,1.8503,1.8516,1.8523,1.8536,1.8547,1.8555,1.8554,1.8539,1.8537,1.8543,1.8547,1.855,1.8549,1.8459,1.8535,1.8534,1.8534,1.8533,1.8533,1.8523,1.8537,1.8538,1.8549,1.8551,1.8555,1.8568,1.8563,1.8574,1.8583,1.8574,1.859,1.8591,1.8599,1.8601,1.8613,1.8601,1.861,1.8612,1.8614,1.8618,1.8549,1.8614,1.8614,1.8614,1.8614,1.8613,0,1.8593,1.8591,1.8602,1.8609,1.8618,1.8602,1.8606,1.8615,1.8629,1.8631,1.864,1.8655,1.8666,1.8661,1.867,1.8681,1.8674,1.8684,1.8683,1.8683,1.8628,1.8622,1.8689,1.8689,1.8689,1.8689,1.8689,1.8689,1.863,1.8653,1.8647,1.8671,1.867,1.8685,1.8688,1.8692,1.8694,1.8711,1.872,1.8717,1.8716,1.8725,1.8735,1.8733,1.8737,1.875,1.8745,1.8694,1.8687,1.868,1.8673,1.8751,1.8751,1.8799,1.8799,1.88]}]]